User: anonymous   Login
Location: LDNL
(36.4545°S, 141.6685°E)
Time: 23:44:19
(UTC+10:00)
Language:

CUBEBUG 2 - Orbit

View from above orbital plane
View from above orbital plane
View from above satellite
View from above satellite

Ground track
Ground track

The orbit data is extracted from the following two-line orbital elements,

1 39440U 13066AA  22267.82958226  .00001394  00000-0  19391-3 0  9990
2 39440  97.7355 221.2704 0078544 167.9402 192.3713 14.77272706474951
Epoch (UTC): 24 September 2022 19:54:35
Eccentricity: 0.0078544
inclination: 97.7355°
perigee height: 583 km
apogee height: 693 km
right ascension of ascending node: 221.2704°
argument of perigee: 167.9402°
revolutions per day: 14.77272706
mean anomaly at epoch: 192.3713°
orbit number at epoch: 47495

The dashed part of the orbit path shows where the satellite is in the earth's shadow,  

DLR